EW0050 Weather Reports


time (UTC)temp
C
wind
direction
speed
KPH
gust
KPH
rain 1hr
cm
rain 24hr
cm
rain mn
cm
humidity
%
barometer
mb
20260510065923 17 96 8.0 16.1 0.00 0.99 0.00 83 1010.4
20260510062929 17 96 4.8 20.9 0.00 0.99 0.00 83 1010.1
20260510055924 17 90 3.2 14.5 0.00 0.99 0.00 82 1010.0
20260510052922 17 46 3.2 12.9 0.00 0.99 0.00 83 1009.8
20260510045958 16 98 1.6 8.0 0.00 0.99 0.00 84 1009.5
20260510042931 16 119 1.6 4.8 0.00 0.99 0.00 85 1009.5
20260510035919 15 70 1.6 14.5 0.00 0.99 0.00 87 1009.4
20260510032933 15 87 4.8 8.0 0.00 0.99 0.00 88 1009.6
20260510025921 15 165 0.0 0.0 0.00 0.99 0.00 88 1010.0
20260510022916 15 86 0.0 3.2 0.10 0.99 0.20 87 1010.2
20260510015924 15 136 1.6 9.7 0.30 0.99 0.20 87 1010.4
20260510012920 15 121 0.0 4.8 0.41 0.89 0.18 87 1010.4
20260510005940 15 106 3.2 6.4 0.30 0.71 0.15 86 1010.3
20260510002933 15 130 0.0 4.8 0.10 0.51 0.10 86 1010.7
20260509235940 15 217 0.0 3.2 0.00 0.41 0.08 86 1010.5
20260509232913 16 155 1.6 3.2 0.10 0.41 0.08 85 1010.5
20260509225930 16 157 0.0 1.6 0.10 0.41 0.08 84 1011.4
20260509222915 16 157 0.0 1.6 0.00 0.30 0.05 83 1011.9
20260509215930 17 163 1.6 3.2 0.00 0.30 0.05 81 1011.2
20260509212917 17 164 0.0 4.8 0.20 0.30 0.05 77 1011.5
20260509205931 17 90 4.8 12.9 0.30 0.30 0.05 75 1011.4
20260509202928 18 96 1.6 8.0 0.10 0.10 0.03 71 1011.7
20260509195917 19 109 4.8 16.1 0.00 0.00 0.00 65 1011.5
20260509192931 20 86 8.0 17.7 0.00 0.00 0.00 61 1011.4
20260509185918 20 76 9.7 17.7 0.00 0.00 0.00 60 1011.0
20260509182911 20 76 6.4 12.9 0.00 0.00 0.00 61 1010.9
20260509175920 20 111 4.8 14.5 0.00 0.00 0.00 62 1011.2
20260509172915 20 125 6.4 16.1 0.00 0.00 0.00 61 1010.9
20260509165929 21 116 6.4 14.5 0.00 0.00 0.00 61 1011.3
20260509162916 21 28 4.8 16.1 0.00 0.00 0.00 59 1011.0
20260509155911 22 74 4.8 24.1 0.00 0.00 0.00 57 1011.1
20260509152946 22 109 4.8 12.9 0.00 0.00 0.00 57 1011.0
20260509145913 22 78 6.4 29.0 0.00 0.00 0.00 55 1011.6
20260509142926 22 123 8.0 17.7 0.00 0.00 0.00 55 1012.2
20260509135914 22 129 8.0 24.1 0.00 0.00 0.00 53 1012.6
20260509132929 22 84 6.4 16.1 0.00 0.00 0.00 56 1013.1
20260509125924 22 163 6.4 14.5 0.00 0.00 0.00 56 1013.5
20260509122939 21 109 8.0 20.9 0.00 0.00 0.00 58 1013.6
20260509115933 22 88 12.9 29.0 0.00 0.00 0.00 56 1014.0
20260509112923 22 115 14.5 35.4 0.00 0.00 0.00 52 1014.4
20260509105939 21 113 9.7 24.1 0.00 0.00 0.00 54 1014.6
20260509102922 21 84 6.4 22.5 0.00 0.00 0.00 52 1014.8
20260509095918 21 109 11.3 19.3 0.00 0.00 0.00 58 1014.9
20260509092932 21 117 9.7 17.7 0.00 0.00 0.00 60 1015.0
20260509085920 21 42 6.4 20.9 0.00 0.00 0.00 56 1015.1
20260509082932 21 102 6.4 12.9 0.00 0.00 0.00 58 1015.3
20260509075926 20 144 4.8 12.9 0.00 0.00 0.00 57 1015.6
20260509072941 19 119 6.4 11.3 0.00 0.00 0.00 64 1015.4